GEFSCGP_850_meantemp_084.txt.gz
Temperature
30 30 30 30 31 31 31 30 28 27 28 26 24 22 22 22 23 23 23 23 22 21 21 20 20 20 19 19 19 19 18 18 18 18 18 18 18 18 18 17 17 17 16 16
31 30 31 32 32 31 30 29 28 28 28 27 24 23 23 23 24 23 23 23 22 21 21 21 20 20 19 19 19 19 18 18 18 18 18 18 18 18 17 17 17 17 16 16
31 31 32 32 31 30 30 29 28 27 28 26 24 22 22 23 24 24 24 23 23 22 21 21 21 20 20 19 19 19 18 18 18 18 17 17 17 17 17 17 17 16 16 15
31 32 32 31 31 30 29 30 29 28 27 24 24 22 22 23 24 24 24 24 23 23 22 22 21 21 20 20 19 19 18 18 18 17 17 17 17 16 16 16 16 16 16 15
30 31 31 31 31 31 30 30 28 27 26 25 25 24 23 23 24 24 24 24 24 23 23 22 22 21 21 20 19 19 18 18 17 17 17 16 16 16 16 16 16 15 15 15
31 32 31 31 32 31 31 28 26 24 23 22 25 25 24 24 24 25 25 24 24 24 23 22 22 21 21 20 20 19 18 18 17 16 16 16 15 15 15 15 15 15 15 15
29 29 29 29 30 30 29 27 23 21 20 21 25 26 25 26 27 26 25 25 24 24 23 23 22 22 21 21 20 19 18 17 17 16 16 15 15 15 15 15 14 14 14 14
28 26 27 28 29 29 29 28 25 24 23 24 26 26 27 28 28 27 26 25 24 24 24 23 23 22 22 21 20 19 18 17 17 16 16 15 15 15 14 14 14 14 14 14
28 27 28 29 31 31 29 29 29 27 26 24 26 27 27 28 28 27 26 25 25 25 24 24 23 22 22 21 20 19 18 17 16 16 15 15 15 14 14 14 14 13 13 13
30 29 30 31 31 31 30 30 30 28 26 25 24 25 26 27 27 27 27 27 26 26 25 25 24 23 22 21 20 19 18 17 16 16 15 16 15 14 14 13 13 13 13 13
31 30 30 30 29 28 29 29 29 29 28 26 23 23 27 27 28 28 28 27 27 26 26 25 24 23 21 21 20 19 18 17 16 16 15 15 14 14 13 13 13 13 12 12
31 30 28 28 29 29 30 29 29 27 27 28 26 26 29 29 29 29 28 27 27 26 25 24 23 22 21 21 20 19 18 17 17 16 15 15 14 14 13 13 13 12 12 12
30 29 27 26 25 25 27 29 29 29 29 28 26 26 28 29 29 29 28 28 27 26 25 24 23 22 21 20 19 19 18 18 17 16 16 15 14 14 13 13 13 12 12 12
30 29 27 25 24 24 26 28 29 29 28 27 26 26 27 29 29 29 28 27 27 25 25 24 23 22 21 20 19 18 18 17 17 16 15 15 14 14 13 13 12 12 12 12
29 28 28 28 28 28 28 29 29 29 29 28 27 27 28 29 29 28 28 27 26 25 24 23 22 21 20 19 19 18 18 17 16 16 15 15 14 14 13 13 12 12 12 12
28 28 28 28 29 29 29 30 30 30 30 30 29 29 29 29 29 28 28 27 26 25 24 23 22 21 20 19 19 18 17 17 16 15 15 15 14 14 13 13 12 12 12 12
28 28 27 27 29 29 28 30 30 30 30 30 29 29 29 29 28 28 27 27 26 25 24 24 22 21 20 19 19 18 17 17 16 16 15 15 14 14 13 13 13 12 12 12
28 27 27 27 27 26 28 30 30 30 30 30 30 30 29 29 28 27 27 26 26 25 24 23 22 21 20 19 19 18 17 17 16 16 15 15 14 14 13 13 12 12 12 12
27 27 27 27 26 27 28 28 28 28 28 30 30 30 29 29 28 27 26 26 25 25 24 23 22 22 21 20 19 18 17 17 17 16 16 15 14 14 13 13 12 12 12 12
26 26 26 27 26 25 26 27 27 27 26 28 29 28 28 28 27 27 26 25 25 24 23 23 22 21 20 20 19 18 17 17 17 16 16 15 14 14 13 13 13 12 12 12
23 25 26 26 26 26 26 26 26 24 24 26 27 27 27 27 26 26 25 25 24 23 23 22 22 21 20 19 19 18 17 17 16 16 15 15 14 14 14 13 13 12 12 12
24 25 25 25 24 24 24 25 23 22 23 25 26 27 26 26 26 25 25 24 23 23 22 22 21 20 20 19 18 18 17 17 16 16 15 15 14 14 14 13 13 12 12 12
26 26 26 25 23 22 21 22 22 23 23 24 25 26 26 25 25 25 24 24 23 23 22 21 21 20 19 18 18 17 17 17 16 16 15 15 15 14 14 13 13 12 12 12
26 26 26 25 23 22 22 22 23 23 23 24 25 25 25 25 25 24 23 23 22 22 21 21 20 19 19 18 18 17 17 16 16 16 15 15 14 14 14 13 13 13 13 13
27 26 25 24 24 23 22 22 23 23 23 24 24 24 24 24 23 23 22 22 21 21 21 20 20 19 19 18 17 17 17 16 16 15 15 14 14 14 14 14 14 14 13 13
27 26 25 24 23 23 22 22 22 23 23 23 22 22 22 22 22 21 21 20 20 20 20 19 19 19 18 18 17 17 16 16 15 15 14 14 14 14 14 14 14 14 14 13

GEFSCGP_850_meantemp_090.txt.gz
Temperature
26 24 23 23 24 25 25 24 23 23 23 21 19 19 18 18 18 17 17 18 18 19 19 19 19 19 19 19 19 19 19 18 18 18 18 18 17 17 17 17 17 16 16 16
24 23 25 27 27 27 25 24 23 23 22 21 19 19 19 18 18 18 17 18 18 19 19 19 19 19 19 19 19 19 19 18 18 18 18 18 17 17 17 16 16 16 16 16
24 25 27 28 27 26 25 24 23 22 22 21 20 19 19 19 19 19 18 18 19 19 19 19 19 19 19 19 19 19 19 18 18 18 18 17 17 17 16 16 16 16 16 15
25 27 28 27 27 26 24 25 24 23 20 19 20 19 19 19 18 19 19 19 19 19 19 19 19 19 19 19 19 19 19 18 18 18 17 17 17 16 16 16 16 15 15 15
25 26 27 27 27 26 24 24 23 21 19 19 19 18 18 19 18 18 19 19 20 20 20 20 20 20 19 19 19 19 19 18 18 17 17 17 16 16 16 15 15 15 15 15
26 26 26 26 26 26 24 22 20 18 17 18 19 19 18 18 19 19 19 20 20 20 20 20 20 20 20 19 19 19 18 18 17 17 17 16 16 16 15 15 15 15 14 14
25 25 25 26 25 24 23 20 19 19 18 18 19 19 18 19 20 20 20 20 20 20 20 20 20 20 20 19 19 19 18 18 17 17 16 16 16 15 15 15 14 14 14 14
23 24 25 25 25 24 23 21 20 20 19 18 19 19 19 21 21 22 21 21 21 21 21 21 21 20 20 20 19 19 18 18 17 17 16 16 16 15 15 15 14 14 14 13
23 23 25 26 26 24 23 21 20 18 18 18 18 19 20 21 21 21 21 21 21 21 21 21 21 21 20 20 20 19 19 18 17 17 16 16 15 15 15 14 14 14 13 13
23 23 24 25 25 24 23 21 19 18 18 18 19 18 19 20 20 21 20 21 21 22 22 22 21 21 21 20 20 19 19 18 18 17 16 16 15 15 15 14 14 14 13 13
23 22 23 23 24 24 23 22 20 18 18 18 18 18 20 20 20 20 21 22 22 22 22 22 22 21 21 20 20 19 19 18 18 17 17 16 16 15 15 14 14 14 13 13
22 20 21 22 23 24 23 22 20 19 19 18 18 19 22 21 21 21 22 22 23 23 23 22 22 21 21 20 20 19 19 18 18 17 17 16 16 15 15 14 14 14 13 13
22 20 20 21 21 22 23 23 21 18 18 18 18 20 22 21 21 22 23 23 23 23 23 22 22 21 21 20 20 19 19 18 18 17 17 16 16 15 15 15 14 14 13 13
22 20 20 21 21 22 22 23 23 20 18 19 19 21 22 21 21 21 23 24 24 23 23 22 22 21 21 21 20 20 19 18 18 17 17 16 16 16 15 15 14 14 14 13
21 21 22 22 23 23 23 24 24 22 20 20 21 21 21 21 21 22 23 23 23 22 22 22 22 21 21 21 20 20 19 19 18 18 17 17 16 16 15 15 14 14 14 13
19 20 21 22 23 23 24 24 24 24 23 22 22 21 21 22 22 22 23 23 22 22 22 22 22 22 21 21 20 20 19 19 18 18 17 17 16 16 15 15 14 14 14 13
18 19 20 20 22 23 22 22 23 22 22 21 20 20 20 20 20 21 22 22 22 23 23 23 22 22 22 21 21 20 20 19 18 18 17 17 16 16 15 15 15 14 14 14
18 18 17 19 21 22 21 22 23 22 21 20 20 20 20 20 22 23 23 23 23 23 23 23 23 22 22 21 21 20 20 19 18 18 18 17 17 16 16 15 15 14 14 14
18 18 18 18 19 21 21 21 21 21 19 19 19 20 20 21 21 21 23 24 24 24 24 23 23 22 22 21 21 20 20 19 19 18 18 17 17 16 16 15 15 15 14 14
17 17 17 18 19 20 20 21 21 21 19 18 18 18 19 20 18 19 22 23 24 24 23 23 23 22 22 21 21 20 20 19 19 18 18 17 17 16 16 15 15 15 14 14
17 17 17 17 18 19 19 19 20 19 19 18 18 19 19 18 19 21 22 23 23 23 23 23 22 22 22 21 21 20 20 19 19 18 18 17 17 16 16 15 15 15 14 14
17 17 16 16 17 18 18 18 18 17 18 18 19 19 19 20 20 21 22 22 22 22 22 22 22 21 21 21 20 20 20 19 18 18 17 17 16 16 16 15 15 15 14 14
17 16 15 16 16 16 17 17 18 18 18 19 19 20 20 20 20 20 21 21 21 21 21 21 21 21 20 20 20 19 19 18 18 17 17 17 16 16 15 15 15 14 14 14
17 16 15 15 15 16 17 18 18 19 19 19 19 19 19 19 19 20 20 20 20 20 20 20 20 20 20 19 19 18 18 18 17 17 16 16 16 15 15 15 14 14 14 14
17 16 15 15 15 16 17 18 18 19 19 19 18 18 19 19 19 19 19 19 19 19 19 19 19 19 18 18 18 17 17 17 16 16 16 15 15 15 14 14 14 14 14 13
16 16 16 15 16 15 17 19 19 18 18 18 18 18 18 18 18 18 18 18 18 17 17 17 17 17 17 17 16 16 16 15 15 15 15 14 14 14 13 13 13 13 13 13

GEFSCGP_850_meantemp_096.txt.gz
Temperature
23 21 21 21 21 23 23 22 21 21 20 19 18 18 17 17 17 17 17 17 17 17 18 18 18 18 18 18 18 18 18 18 18 17 17 17 17 17 17 16 16 16 16 16
22 21 22 23 23 22 22 21 21 20 20 19 18 18 18 17 17 17 17 17 17 17 17 18 18 18 18 18 18 18 18 18 17 17 17 17 17 17 16 16 16 16 16 15
22 23 24 24 24 23 22 21 21 20 20 19 19 18 18 17 17 17 17 17 18 17 18 18 18 18 18 18 18 18 18 17 17 17 17 17 17 17 16 16 16 16 15 15
22 23 24 24 24 23 22 22 21 20 19 18 19 18 18 17 17 17 17 17 18 18 18 18 18 18 18 18 18 18 18 17 17 17 17 17 17 16 16 16 15 15 15 15
23 24 25 24 24 24 22 20 20 19 18 18 18 17 17 17 17 17 17 18 18 18 18 18 18 18 18 18 18 18 18 17 17 17 17 17 16 16 16 15 15 15 15 15
23 24 25 24 23 23 21 19 18 16 16 18 18 17 18 16 17 17 17 18 18 19 19 18 18 18 18 18 18 18 18 17 17 17 17 16 16 16 16 15 15 15 15 14
23 24 24 23 22 21 20 19 18 19 17 18 18 17 17 18 18 18 18 18 19 19 19 19 18 18 18 18 18 18 18 17 17 17 16 16 16 16 15 15 15 15 14 14
22 22 23 23 22 21 20 20 19 20 19 18 18 17 18 19 19 19 20 20 19 19 19 19 19 19 19 19 18 18 18 18 17 17 16 16 16 15 15 15 14 14 14 14
21 22 23 23 23 21 20 19 18 17 17 17 17 18 19 19 19 18 19 19 19 20 20 20 20 20 20 19 19 19 18 18 17 17 17 16 16 15 15 15 14 14 14 14
21 22 23 23 22 21 20 17 16 17 18 19 19 19 18 20 19 18 18 19 20 20 20 21 20 20 20 20 19 19 18 18 18 17 17 16 16 15 15 15 14 14 14 14
21 21 22 22 22 21 19 18 16 15 16 18 19 19 19 19 18 18 18 20 21 21 21 21 21 21 21 20 20 19 19 18 18 17 17 16 16 15 15 15 14 14 14 14
20 19 20 21 21 21 21 19 17 18 18 16 17 18 20 19 18 19 20 21 22 22 22 22 22 21 21 20 20 19 19 18 18 17 17 16 16 15 15 15 15 14 14 14
19 19 20 21 20 21 21 19 17 16 15 15 17 19 20 18 18 20 20 21 22 22 22 22 22 21 21 21 20 20 19 19 18 18 17 17 16 16 15 15 15 15 14 14
19 18 19 21 20 20 21 20 17 17 16 16 17 19 19 19 18 18 20 21 22 22 22 22 22 22 22 21 21 20 20 19 18 18 17 17 17 16 16 15 15 15 15 14
19 19 19 19 20 21 21 21 19 18 18 18 19 18 19 18 18 19 20 21 21 22 22 22 22 22 22 21 21 20 20 19 19 18 18 17 17 16 16 16 15 15 15 14
17 19 19 20 21 21 21 21 20 20 19 18 19 19 18 18 19 19 19 20 20 22 22 22 22 22 22 21 21 21 20 19 19 18 18 17 17 17 16 16 16 15 15 15
16 17 18 19 20 21 20 20 20 20 19 19 19 19 18 17 17 18 19 20 21 22 23 23 22 22 22 21 21 21 20 20 19 18 18 17 17 17 16 16 16 15 15 15
16 16 16 17 20 20 20 20 20 19 19 18 17 17 17 17 18 19 20 21 21 22 22 22 22 22 22 21 21 20 20 19 19 19 18 18 17 17 17 16 16 16 15 15
15 15 15 16 18 19 19 19 19 19 19 17 17 17 17 18 18 18 19 20 21 22 22 22 22 22 22 22 21 20 20 19 19 19 18 18 18 17 17 16 16 16 15 15
14 15 15 16 18 19 19 19 19 19 19 18 16 16 16 17 17 17 19 20 21 21 21 21 21 21 21 21 20 20 20 19 19 19 18 18 18 17 17 16 16 16 15 15
16 15 16 16 17 17 18 18 18 19 18 17 17 16 16 16 17 18 19 20 20 21 20 20 20 21 21 20 20 19 19 19 19 18 18 18 17 17 16 16 16 15 15 15
16 15 15 15 17 17 17 17 17 17 17 17 17 17 17 17 17 18 19 20 20 20 20 20 20 20 20 19 19 19 19 18 18 18 17 17 17 16 16 16 15 15 15 14
15 15 14 15 16 16 16 17 17 17 17 17 17 17 17 17 17 18 18 19 19 19 19 19 19 19 18 18 18 18 18 17 17 17 16 16 16 16 15 15 15 14 14 14
15 13 14 14 15 15 16 16 17 17 17 17 17 17 17 17 17 18 18 18 18 18 18 18 18 18 17 17 17 17 16 16 16 16 16 15 15 15 15 14 14 14 13 13
15 13 14 14 14 15 16 16 17 17 17 17 17 17 17 17 17 17 17 17 17 17 17 17 17 16 16 16 16 15 15 15 15 15 15 14 14 14 13 13 13 13 12 12
13 13 14 15 15 14 15 16 17 17 16 16 17 16 17 17 16 16 16 16 16 16 16 16 15 15 15 15 14 14 14 14 14 14 13 13 13 12 12 12 12 12 12 12

GEFSCGP_850_meantemp_102.txt.gz
Temperature
27 28 29 30 30 29 29 29 29 29 28 27 27 26 25 24 23 22 21 20 19 18 18 18 17 17 18 18 18 18 18 18 18 18 17 17 17 17 17 17 17 16 16 16
28 29 30 30 29 29 29 29 29 28 27 27 26 26 26 24 23 22 21 20 19 19 18 18 17 17 17 18 18 18 18 18 17 17 17 17 17 17 16 16 16 16 16 16
29 30 30 29 29 29 29 29 29 28 27 26 26 26 25 25 23 22 22 21 20 19 19 18 18 17 17 17 18 18 18 18 17 17 17 17 17 16 16 16 16 16 16 15
29 30 29 29 29 29 29 29 28 27 27 28 26 27 26 25 24 24 22 21 21 20 19 19 18 18 18 17 17 17 18 18 17 17 17 17 17 17 16 16 16 16 15 15
29 29 29 29 29 29 28 28 28 27 27 27 27 27 28 26 25 25 24 22 21 20 20 19 19 18 18 17 17 17 17 17 17 17 17 17 17 16 16 16 16 15 15 15
30 30 30 30 29 28 27 27 27 27 28 27 27 27 27 27 26 26 25 23 22 21 20 19 19 18 18 17 17 17 17 17 17 17 17 16 16 16 16 16 15 15 15 15
29 29 30 29 28 28 28 28 27 27 27 27 27 27 27 27 27 26 25 23 22 21 20 19 19 18 18 18 17 17 17 17 17 17 17 16 16 16 16 15 15 15 15 15
28 28 29 29 29 29 28 28 27 26 27 28 27 27 28 27 26 25 25 24 22 22 21 20 19 19 18 18 18 17 17 17 17 17 17 16 16 16 16 15 15 15 15 15
29 29 29 29 29 29 28 28 29 28 27 27 28 28 28 26 26 25 25 24 23 22 21 21 20 19 19 18 18 18 17 17 17 17 17 16 16 16 15 15 15 15 14 14
29 28 29 28 28 27 28 29 28 28 26 26 27 28 28 27 26 26 25 24 24 23 22 21 21 20 20 19 18 18 18 18 18 17 17 16 16 16 16 15 15 14 14 14
29 28 28 28 27 28 27 27 27 28 27 26 26 27 29 28 27 27 26 25 24 24 23 22 21 21 20 19 19 18 18 18 18 17 17 17 16 16 16 15 15 15 15 14
28 28 28 28 28 28 28 28 28 27 26 27 27 28 28 28 28 27 26 25 25 24 23 23 22 21 20 20 19 19 18 18 18 18 17 17 17 16 16 15 15 15 15 15
27 27 26 26 26 26 27 28 28 28 27 27 27 28 28 28 28 27 26 25 25 24 24 23 22 21 21 20 20 19 19 18 18 18 17 17 17 17 16 16 16 15 15 15
26 26 27 27 27 28 27 27 27 27 27 27 27 28 28 28 27 27 26 25 25 24 23 23 22 22 21 21 20 19 19 19 18 18 18 17 17 17 17 16 16 16 15 15
26 26 27 27 28 28 28 28 27 27 27 27 28 28 28 28 27 26 25 25 24 24 23 23 22 22 21 21 20 20 19 19 19 18 18 18 17 17 17 16 16 16 16 15
24 25 26 26 27 27 27 27 27 27 27 27 27 28 28 27 26 25 24 24 24 24 23 23 22 22 21 20 20 20 19 19 19 18 18 18 17 17 17 17 16 16 16 15
25 24 25 26 27 26 26 27 27 27 27 27 27 27 27 26 25 24 23 23 23 23 23 22 22 21 21 20 20 20 19 19 19 18 18 18 18 17 17 17 16 16 16 16
24 24 25 26 25 24 27 27 27 27 27 27 27 26 26 25 23 22 22 22 22 22 22 22 21 21 21 20 20 19 19 19 19 19 18 18 17 17 17 16 16 16 16 16
23 23 24 25 25 25 26 26 26 26 26 26 26 25 25 24 23 22 21 20 20 20 20 20 20 21 20 20 19 19 19 19 19 18 18 18 17 17 17 17 16 16 16 16
22 23 24 24 24 24 25 25 24 25 25 25 24 24 24 24 25 23 20 19 19 19 19 19 19 20 19 19 19 19 18 18 18 18 18 17 17 17 17 16 16 16 16 16
22 22 23 24 24 25 25 24 24 24 23 22 23 22 22 23 22 20 19 18 18 18 18 18 18 18 18 18 18 18 18 18 18 17 17 17 17 17 16 16 16 15 15 15
23 23 23 23 23 23 23 24 24 22 21 21 21 21 20 20 19 18 18 17 17 17 17 17 17 17 17 17 17 17 17 17 17 17 17 16 16 16 15 15 15 15 15 14
23 23 23 23 23 21 21 21 20 20 20 20 20 20 19 19 18 18 17 16 16 16 16 16 16 16 16 17 17 17 16 16 16 16 16 16 16 15 15 15 14 14 14 14
22 21 22 22 22 21 20 20 19 19 19 19 19 19 18 18 17 17 16 16 16 15 16 16 15 15 16 16 16 16 16 15 15 15 15 14 14 14 14 14 13 13 13 13
21 22 22 22 21 20 19 19 18 18 18 18 18 17 17 17 16 16 15 15 15 14 15 15 15 15 14 14 14 14 14 14 14 14 14 13 13 13 13 13 13 13 12 12
20 20 21 21 19 20 19 18 17 17 17 17 16 16 16 16 15 15 14 14 14 14 14 14 14 14 13 13 13 13 13 13 13 13 13 13 13 12 12 12 12 12 12 11

GEFSCGP_850_meantemp_108.txt.gz
Temperature
30 30 30 31 32 32 31 31 31 31 32 31 30 30 29 28 27 26 25 23 22 21 20 20 19 19 19 18 18 18 18 18 18 18 18 18 18 18 18 17 17 17 17 17
30 30 31 32 32 32 32 31 31 31 32 31 30 30 29 28 27 26 25 23 22 21 20 20 19 19 19 18 18 18 18 18 18 18 18 18 18 18 17 17 17 17 17 17
29 31 32 32 32 31 31 31 31 30 31 31 30 29 28 28 27 26 26 24 23 22 21 20 19 19 19 18 18 18 18 18 18 18 18 18 18 17 17 17 17 17 16 16
31 32 32 32 32 32 31 32 31 31 30 29 28 27 27 27 27 26 26 25 23 22 21 20 20 19 19 18 18 18 18 18 18 18 18 18 18 18 17 17 17 17 16 16
31 32 32 31 32 32 31 32 31 31 30 28 27 26 27 28 26 26 26 25 24 23 22 21 20 19 19 18 18 18 18 18 18 18 18 18 18 18 18 17 17 16 16 16
31 33 33 32 33 33 32 31 30 29 27 24 25 26 26 27 28 28 27 26 24 23 22 21 20 20 19 19 18 18 18 18 18 18 18 18 18 18 17 17 17 17 16 16
30 31 32 33 32 32 31 29 27 25 23 22 24 25 26 28 29 29 27 26 25 24 22 21 21 20 19 19 18 18 18 18 18 18 18 18 18 18 17 17 17 17 17 16
29 29 31 32 31 31 30 29 27 25 24 24 24 25 27 29 30 29 27 26 25 24 23 22 21 20 19 19 19 18 18 18 18 18 17 17 17 17 17 17 17 17 17 17
30 30 31 31 32 31 30 30 30 28 27 27 25 25 27 29 29 29 27 26 25 24 23 22 21 20 20 19 19 18 18 18 18 18 17 17 17 17 17 17 17 17 17 17
31 29 31 31 31 31 31 31 30 28 26 26 25 24 24 25 28 28 28 27 26 25 24 23 22 21 20 20 19 19 18 18 18 18 18 17 17 17 17 17 17 17 16 16
31 29 30 30 29 29 30 30 29 29 28 26 25 25 26 26 27 28 28 27 26 25 24 23 22 22 21 20 19 19 18 18 18 18 18 17 17 17 17 17 17 17 16 16
30 30 29 30 30 30 30 29 28 27 26 27 27 26 28 28 29 29 28 28 27 26 25 24 23 22 21 21 20 19 19 18 18 18 18 18 17 17 17 17 17 17 16 16
29 28 27 28 28 28 28 28 28 28 28 27 27 26 28 28 28 28 28 27 27 26 25 24 24 23 22 21 21 20 19 19 18 18 18 18 17 17 17 17 17 17 17 16
29 28 28 27 27 25 24 25 27 27 27 27 27 26 26 27 27 28 28 27 27 26 25 25 24 23 22 22 21 21 20 19 19 18 18 18 18 18 17 17 17 16 16 16
29 28 28 28 27 26 25 25 26 26 27 27 27 26 25 26 27 28 27 27 26 26 25 25 24 23 23 22 22 21 20 20 20 19 19 18 18 18 17 17 17 17 16 16
26 27 27 27 28 27 26 26 26 27 28 29 28 27 27 28 27 27 27 26 26 25 25 25 24 23 23 22 22 21 21 20 20 20 19 19 18 18 18 17 17 17 17 16
24 25 26 26 27 27 26 27 27 27 28 29 28 27 28 27 27 26 25 25 25 25 24 24 24 23 23 22 22 21 21 21 20 20 19 19 18 18 18 17 17 17 17 17
22 23 24 25 25 24 27 28 28 28 28 28 28 28 28 27 26 25 24 24 24 24 23 23 23 23 22 22 22 21 21 20 20 19 19 19 18 18 17 17 17 17 17 16
21 22 23 24 24 24 26 26 27 26 26 27 27 27 27 26 26 24 23 23 23 22 22 22 22 22 22 22 21 21 21 20 20 19 19 18 18 18 17 17 17 17 16 16
23 23 23 24 24 23 24 25 25 25 24 26 26 26 26 26 24 23 22 22 21 21 21 21 21 21 21 21 21 21 20 20 19 19 18 18 18 17 17 17 17 16 16 16
23 23 23 24 23 23 23 24 25 23 23 25 25 25 24 24 23 22 21 21 20 20 20 20 20 20 20 20 20 19 19 18 18 18 18 17 17 17 17 16 16 16 16 15
21 22 23 23 22 22 23 24 23 22 23 23 23 23 22 22 21 21 20 20 20 19 19 19 18 18 18 18 18 18 17 17 17 17 17 17 16 16 16 16 15 15 15 15
19 19 20 21 21 21 22 22 22 23 23 22 22 22 22 21 21 20 19 18 18 18 18 18 17 17 17 17 17 17 16 16 16 16 16 16 15 15 15 15 15 14 14 14
19 19 20 19 19 19 20 21 22 22 22 22 22 21 21 20 19 18 18 17 17 17 16 16 16 16 15 15 16 15 15 15 15 15 15 15 15 14 14 14 14 14 13 13
19 19 19 18 19 19 19 20 21 21 21 21 21 20 20 19 18 17 17 16 16 16 15 15 15 14 14 14 14 14 14 14 14 14 14 14 14 14 13 13 13 13 13 13
19 19 19 18 18 19 19 19 20 20 20 20 19 18 18 18 17 16 16 15 15 15 15 14 14 14 14 13 13 13 13 13 13 13 13 13 13 13 13 13 13 13 13 13

GEFSCGP_850_meantemp_114.txt.gz
Temperature
26 23 22 23 24 24 25 25 25 26 27 26 24 23 23 22 22 21 21 20 20 20 20 20 19 19 19 18 18 18 18 18 19 18 18 18 18 18 18 18 18 18 17 17
23 22 24 26 26 26 26 25 25 26 27 25 23 23 22 22 21 21 21 20 20 20 19 19 19 19 19 18 18 18 18 18 18 18 18 18 18 18 18 18 17 17 17 17
23 24 26 27 27 27 26 26 26 26 26 24 23 21 21 21 21 21 21 21 20 20 19 19 19 18 18 18 18 18 18 18 18 18 18 18 18 18 17 17 17 17 17 17
24 25 27 27 27 27 25 27 27 26 24 21 22 20 20 20 20 20 20 20 20 19 19 19 19 18 18 18 18 18 18 18 18 18 18 18 18 18 18 18 17 17 17 17
24 26 26 26 27 28 26 27 26 25 22 20 20 20 20 19 19 20 20 20 20 20 19 19 19 19 18 18 18 18 18 18 18 18 18 18 18 18 18 17 17 17 17 16
25 26 27 27 28 28 27 25 23 20 19 20 20 20 19 19 19 20 20 20 20 20 19 19 19 18 18 18 18 18 18 18 18 18 18 18 18 18 17 17 17 17 16 16
24 25 27 27 26 27 26 23 21 21 19 19 19 19 19 20 21 20 20 20 20 20 19 19 19 18 18 18 18 18 18 18 18 18 18 18 18 18 17 17 17 17 16 16
22 23 25 26 26 25 24 23 21 21 20 19 19 19 19 21 21 21 21 21 20 20 19 19 19 19 18 18 18 18 18 18 18 18 18 18 18 17 17 17 17 17 17 17
22 23 26 27 27 26 24 23 21 20 20 19 18 19 19 21 21 21 21 20 20 20 20 19 19 19 19 19 18 18 18 18 18 18 18 18 17 17 17 17 17 17 17 17
23 23 24 26 26 26 25 23 20 20 20 20 19 19 18 20 21 20 20 20 20 20 20 20 19 19 19 19 19 18 18 18 18 18 18 18 17 17 17 17 17 17 17 17
23 22 23 24 24 24 24 23 20 18 19 19 19 19 21 20 20 20 20 21 20 20 20 20 20 20 19 19 19 19 18 18 18 18 18 18 17 17 17 17 17 17 17 17
21 20 21 22 23 25 24 22 20 20 19 18 18 20 22 21 20 20 21 21 21 21 21 21 21 20 20 19 19 19 19 19 18 18 18 18 18 17 17 17 17 17 17 17
21 20 20 21 21 22 23 22 20 18 18 18 18 20 21 20 20 21 21 21 21 21 21 21 21 20 20 20 19 19 19 19 19 18 18 18 18 18 18 17 17 17 17 17
21 19 19 20 20 21 22 22 21 19 18 19 19 20 20 20 20 20 21 21 21 21 21 21 21 20 20 20 20 20 19 19 19 19 18 18 18 18 18 17 17 17 17 17
18 18 19 20 21 22 22 23 22 20 20 20 20 20 20 20 20 21 22 21 21 21 20 20 20 20 20 20 20 20 20 20 19 19 19 18 18 18 18 17 17 17 17 17
16 18 19 20 22 22 22 23 23 22 21 21 21 20 20 20 21 21 21 21 20 20 20 20 20 20 20 20 20 20 20 20 19 19 19 19 18 18 18 17 17 17 17 16
16 16 18 18 20 21 21 21 22 22 21 21 21 20 20 19 19 20 20 20 20 20 21 20 20 20 20 20 20 20 20 20 19 19 19 19 19 18 18 17 17 17 17 16
16 15 15 17 18 19 20 20 22 21 21 20 20 20 19 20 20 20 20 20 20 20 20 20 20 20 20 20 20 20 20 19 19 19 19 19 18 18 18 17 17 17 17 16
15 15 15 16 17 18 20 20 20 20 20 20 19 19 19 19 19 18 19 19 20 20 20 20 20 20 20 20 20 20 19 19 19 19 18 18 18 18 17 17 16 16 16 16
15 15 15 16 17 18 19 19 20 19 19 19 19 19 18 19 17 17 18 19 19 19 19 19 19 19 19 19 19 19 19 18 18 18 18 18 17 17 17 17 16 16 16 15
15 15 15 16 17 18 18 18 19 19 18 18 18 18 18 17 17 17 18 18 18 18 18 18 18 18 18 18 18 18 18 17 17 17 17 17 17 16 16 16 16 15 15 15
15 15 15 15 16 17 17 17 17 17 17 17 17 17 17 17 16 17 17 17 17 17 17 17 17 17 17 17 17 17 16 16 16 16 16 16 16 16 15 15 15 15 15 14
14 14 14 15 15 15 15 16 17 17 17 17 17 17 17 16 16 16 16 16 16 16 16 16 16 16 16 16 16 16 15 15 15 15 15 15 15 14 14 14 14 14 14 14
14 14 14 14 14 14 15 16 17 17 17 17 17 16 16 16 15 15 15 15 15 15 15 15 16 15 15 15 15 15 14 15 15 14 14 14 14 14 13 13 13 13 13 13
14 14 14 14 14 14 15 15 16 16 16 16 16 16 16 16 15 15 15 14 14 15 15 15 15 14 14 14 14 14 14 14 14 13 13 13 13 13 13 13 13 12 13 13
14 14 14 14 14 13 14 15 15 15 15 15 15 15 15 15 15 14 14 14 14 14 14 14 14 14 14 14 14 13 13 13 13 13 13 13 13 13 12 12 12 12 12 12

GEFSCGP_850_meantemp_120.txt.gz
Temperature
22 20 20 21 21 22 23 22 22 22 23 23 22 21 20 19 19 19 18 18 18 19 19 18 18 18 18 18 17 17 17 18 18 17 17 17 17 17 17 17 17 17 17 17
20 20 21 22 22 22 22 22 22 22 23 22 21 21 20 19 19 19 19 18 18 18 18 18 18 18 18 17 17 17 17 17 17 17 17 17 18 17 17 17 17 17 17 17
21 22 23 23 23 23 23 22 22 22 23 21 21 21 20 19 19 19 19 19 18 18 18 18 18 18 17 17 17 17 17 17 17 17 17 17 17 17 17 17 17 17 16 16
21 22 23 23 23 23 22 23 23 23 22 20 21 20 20 19 18 18 18 18 18 18 18 18 18 18 17 17 17 17 17 17 17 17 17 17 17 17 17 17 17 17 16 16
21 22 23 23 23 24 23 23 22 22 20 19 19 19 19 19 19 18 18 18 18 19 18 18 18 18 18 18 17 17 17 17 17 17 17 17 17 17 17 17 17 16 16 16
22 23 23 23 24 24 23 22 20 17 18 19 20 19 19 18 19 19 19 19 19 19 19 19 18 18 17 17 17 17 17 17 17 17 17 17 17 17 17 17 17 16 16 16
22 23 23 24 24 23 23 20 19 20 18 19 18 18 18 19 19 19 19 19 19 19 19 19 18 18 17 17 17 17 17 17 17 17 17 17 17 17 17 17 17 17 16 16
21 21 22 23 23 22 21 20 19 20 19 18 18 18 19 20 20 20 20 20 19 19 19 19 19 18 18 17 17 17 17 17 17 17 17 17 17 17 17 17 17 17 17 17
20 20 22 23 23 22 21 19 19 18 18 18 18 18 19 20 19 19 19 19 19 19 19 19 19 18 18 18 18 17 17 17 17 17 17 17 17 17 17 17 17 17 17 16
20 21 22 23 23 22 21 19 17 17 18 19 19 19 19 20 20 19 18 18 19 19 19 19 19 19 19 18 18 18 18 18 17 17 17 17 17 17 17 17 17 17 17 16
20 20 21 22 22 22 20 19 17 16 17 18 19 19 19 19 19 18 18 19 19 20 20 20 19 19 19 19 18 18 18 18 18 17 17 17 17 17 17 17 17 17 17 16
18 18 18 20 21 21 21 19 17 18 18 17 17 19 20 19 19 18 18 19 20 20 20 20 20 19 19 19 19 18 18 18 18 18 17 17 17 17 17 17 17 17 16 16
18 17 18 19 20 20 20 19 17 17 16 15 17 19 20 19 19 19 19 19 20 20 20 20 20 20 19 19 19 19 18 18 18 18 17 17 17 17 17 17 17 17 16 16
17 16 18 19 19 19 20 20 18 17 17 16 17 19 20 19 19 18 19 19 20 20 20 20 20 20 20 19 19 19 19 18 18 18 17 17 17 17 17 17 17 17 16 16
17 17 17 18 19 19 19 20 19 18 18 18 19 18 19 19 18 19 19 19 19 20 20 20 20 20 20 20 19 19 19 18 18 18 18 18 18 18 17 17 17 17 16 16
15 16 17 18 19 19 19 19 19 19 19 18 19 19 18 18 18 18 19 18 18 19 19 20 20 20 20 20 20 19 19 19 18 18 18 18 18 17 17 17 17 16 16 16
14 15 16 16 18 18 18 19 19 19 19 19 19 19 18 18 17 17 18 18 18 19 19 20 19 20 20 20 20 19 19 19 18 18 18 18 18 17 17 17 17 17 16 16
13 14 13 15 17 17 18 18 19 19 19 18 18 18 17 16 16 17 18 18 18 19 19 19 19 20 20 20 19 19 19 18 18 18 18 18 17 17 17 17 17 17 16 16
12 13 13 14 15 16 18 18 17 18 18 17 17 16 16 16 16 16 17 17 18 18 19 19 19 19 19 19 19 19 18 18 18 18 18 18 17 17 17 17 17 16 16 16
12 12 13 14 16 16 17 17 17 17 17 16 16 16 16 16 16 16 16 16 17 18 18 19 19 19 19 19 18 18 18 18 17 17 17 17 17 17 17 16 16 16 15 15
13 13 13 14 15 15 16 16 17 17 17 16 16 16 16 15 15 15 15 16 17 17 18 18 18 18 18 18 18 18 17 17 17 16 16 16 16 16 16 16 15 15 15 15
13 13 13 13 14 15 15 15 15 15 15 15 15 16 15 15 14 14 15 15 16 16 17 17 17 17 17 17 17 17 16 16 16 16 15 15 15 15 15 15 15 15 14 14
12 13 12 13 14 14 14 14 14 15 14 15 15 15 14 14 14 14 14 15 15 16 16 16 16 16 16 16 16 16 15 15 15 15 15 15 14 14 14 14 14 14 13 13
13 12 12 13 13 13 14 14 14 15 14 15 14 14 14 13 13 13 13 14 14 15 15 15 15 15 14 14 14 14 14 14 14 14 14 14 14 14 13 13 13 13 12 12
13 13 12 13 13 13 14 14 14 14 14 14 14 14 13 13 13 13 13 13 13 13 14 14 14 14 13 13 13 13 13 13 13 13 13 13 13 13 13 12 12 12 12 12
11 12 12 13 12 12 12 13 13 13 13 13 13 13 13 13 13 13 12 12 13 13 13 13 13 13 13 13 13 13 13 13 13 13 13 12 12 12 12 12 12 12 12 12

GEFSCGP_850_meantemp_126.txt.gz
Temperature
26 27 28 28 29 29 29 29 29 30 30 30 30 30 30 28 27 26 25 24 22 21 20 19 18 18 17 17 18 17 17 17 17 17 17 17 17 17 17 17 17 17 17 17
26 27 28 29 29 28 28 28 29 30 30 29 29 30 30 28 27 26 25 24 22 21 20 19 18 17 18 18 17 17 17 17 17 17 17 17 17 17 17 17 17 17 17 17
27 28 29 28 28 28 28 29 29 29 29 29 29 30 30 28 26 25 24 24 23 22 20 19 18 18 17 17 17 17 17 17 17 17 17 17 17 17 17 17 17 17 17 17
28 29 28 28 28 28 28 29 29 29 29 29 29 29 30 29 27 26 25 24 23 22 21 20 19 18 18 17 17 17 17 17 17 17 17 17 17 17 17 17 17 17 17 17
27 28 27 27 28 28 29 29 29 29 29 29 29 29 30 29 28 28 26 25 24 22 21 20 19 18 18 17 17 17 17 17 17 17 17 17 17 17 17 17 17 17 17 17
28 29 28 29 29 29 29 28 28 28 29 28 29 28 29 30 29 28 27 25 23 22 21 20 19 18 17 17 17 16 16 17 17 17 17 17 17 17 17 17 17 17 17 16
27 28 29 29 28 29 28 28 27 27 27 28 29 28 29 30 29 28 27 26 24 23 21 20 19 18 17 17 17 16 16 16 17 17 17 17 17 17 17 17 17 17 17 16
27 27 28 29 28 28 28 28 27 26 27 28 28 28 29 29 28 27 26 25 24 23 22 20 19 18 18 17 17 17 16 16 17 17 17 17 17 17 17 17 17 17 17 17
28 28 29 29 29 29 28 28 30 28 28 27 28 29 29 29 28 27 26 25 24 23 22 21 20 19 18 17 17 17 16 16 16 16 17 17 17 17 17 17 17 17 17 17
28 27 28 28 28 28 29 29 28 28 26 26 28 28 29 29 28 28 27 26 25 23 22 21 20 19 18 18 17 17 17 16 16 17 17 17 17 17 17 17 17 17 17 16
28 27 27 28 27 28 27 28 28 28 28 27 27 28 30 29 28 28 27 26 25 24 23 21 20 19 18 18 17 17 17 16 16 17 16 17 17 17 17 17 17 16 16 16
27 27 27 28 28 28 28 28 28 27 27 27 27 28 29 29 29 28 27 26 24 23 22 21 20 19 18 18 18 17 17 17 17 17 17 17 17 17 17 17 17 16 16 16
26 26 25 26 27 27 27 28 28 28 28 27 27 28 28 28 28 27 26 25 24 23 22 21 20 19 18 18 18 18 17 17 17 17 17 17 17 17 17 17 17 16 16 16
25 25 26 26 27 27 27 27 27 27 27 27 27 28 28 28 28 27 26 25 24 22 22 21 20 19 19 18 18 18 17 17 17 17 17 17 17 17 17 17 17 17 17 16
25 25 26 26 27 27 27 27 27 27 27 27 28 28 28 28 27 26 25 24 23 22 22 21 20 19 19 18 18 18 17 17 17 17 17 17 17 17 16 16 16 16 16 16
23 24 25 25 26 26 26 26 26 26 27 27 27 28 28 27 26 25 24 24 23 22 21 20 20 19 18 18 18 18 17 17 17 17 17 17 17 17 16 16 16 16 16 16
23 23 23 24 25 25 25 26 26 26 27 27 27 27 27 26 25 24 23 23 23 22 21 20 19 19 18 18 18 18 17 17 17 17 17 17 17 16 16 16 16 16 16 16
22 22 22 23 23 22 25 26 26 25 26 26 26 26 25 24 23 21 21 21 21 21 20 19 19 18 18 18 18 18 17 17 17 17 17 17 17 17 17 16 16 16 16 16
21 21 22 22 23 23 24 24 24 24 24 25 25 24 24 22 22 20 19 19 19 18 18 18 18 18 18 18 18 17 17 17 17 16 16 16 16 16 16 16 16 16 16 16
20 20 21 21 21 22 23 23 22 23 23 23 23 23 22 22 23 21 17 17 17 17 17 17 17 17 17 17 17 17 17 16 16 16 16 16 16 16 16 16 16 16 16 16
20 19 20 20 21 22 22 22 22 22 21 20 20 21 21 21 20 17 16 16 16 16 16 16 16 16 16 16 16 16 16 16 16 16 16 16 16 16 16 16 15 15 15 15
20 20 20 20 20 20 21 21 21 20 19 19 19 18 18 17 16 15 15 15 15 15 15 15 15 15 15 15 16 15 15 15 15 15 15 15 15 15 15 15 15 15 14 14
20 20 20 20 20 19 18 18 17 17 17 17 17 17 16 15 15 14 14 14 14 14 14 14 14 14 14 14 15 15 14 14 14 14 14 14 14 14 14 14 14 14 14 14
19 18 18 18 19 18 17 16 16 16 16 16 16 15 15 14 14 13 13 13 13 13 13 13 13 13 13 13 14 14 13 14 14 13 13 13 13 13 13 13 13 13 13 13
18 18 18 17 17 17 16 15 15 15 15 15 15 14 14 14 13 12 12 12 12 12 12 12 13 13 13 13 13 13 13 13 13 13 13 13 13 12 12 12 12 12 12 12
17 17 17 16 16 15 14 14 14 14 14 14 13 13 12 12 12 12 11 11 12 12 12 12 12 12 12 12 12 12 12 12 12 12 12 12 12 12 12 12 12 12 11 11

GEFSCGP_850_meantemp_132.txt.gz
Temperature
29 29 28 30 31 31 32 31 31 32 34 33 32 32 32 32 31 30 29 29 27 25 24 23 22 21 20 20 19 19 18 18 18 18 18 18 18 18 18 18 18 18 18 18
29 28 30 31 32 32 31 31 31 32 33 33 32 32 32 31 31 30 29 29 27 25 24 23 21 21 20 19 19 19 18 18 18 18 18 18 18 18 18 18 18 18 18 18
29 30 31 31 31 31 31 31 31 32 32 33 32 31 31 30 29 29 29 28 27 26 24 23 21 20 20 19 19 18 18 18 18 18 18 18 18 18 18 18 18 18 18 18
30 31 31 31 31 31 30 32 32 32 31 30 31 29 29 28 27 27 28 28 27 26 25 23 22 20 20 19 19 19 18 18 18 18 18 18 18 17 18 18 18 18 18 18
30 31 31 30 31 31 31 32 32 32 31 30 30 29 28 28 26 26 27 28 28 26 25 23 22 21 20 19 19 18 18 18 18 18 18 18 18 18 18 18 18 18 18 18
31 32 32 32 32 32 32 31 31 31 30 28 28 28 27 27 27 28 28 28 27 27 25 23 22 21 20 19 19 18 18 18 18 18 17 17 17 17 17 18 18 18 17 17
30 31 32 32 31 32 31 30 28 28 28 27 27 27 27 29 30 29 29 28 28 27 25 23 22 21 20 19 18 18 18 18 17 17 17 17 17 17 17 18 18 18 18 17
29 29 31 32 31 31 31 30 28 27 27 26 25 24 27 30 30 30 29 29 28 27 25 24 22 21 20 19 19 18 18 18 17 17 17 17 17 17 17 18 18 18 18 18
29 29 32 32 32 32 30 30 31 29 28 27 26 25 26 28 29 29 30 29 28 27 26 24 23 21 20 19 19 18 18 18 17 17 17 17 17 17 17 18 18 18 18 18
30 29 31 32 32 32 32 31 30 29 27 26 26 25 25 26 27 28 29 29 28 27 26 25 23 22 21 20 19 18 18 18 18 17 17 17 17 17 17 17 18 18 18 18
30 29 30 31 30 30 30 30 29 29 29 27 26 25 25 24 25 27 29 29 28 27 26 25 23 22 21 20 19 19 18 18 18 17 17 17 17 17 17 17 18 18 18 18
30 29 29 30 31 31 31 30 30 28 28 28 27 26 26 25 26 28 29 29 28 27 26 25 23 22 21 20 19 19 18 18 17 17 17 17 17 17 17 18 18 18 18 17
29 28 27 27 29 30 30 30 30 30 29 28 27 26 26 26 26 27 29 28 28 27 26 24 23 22 21 20 19 19 18 18 18 17 17 17 17 17 17 17 17 17 17 17
28 28 27 26 26 27 27 28 29 29 28 28 28 26 26 26 26 27 27 28 28 26 25 24 23 22 21 20 19 19 18 18 18 18 17 17 17 17 17 17 17 17 17 17
28 27 27 28 28 27 27 27 28 28 29 28 28 27 26 26 26 26 27 27 27 26 25 24 23 22 21 20 19 19 19 18 18 18 18 17 17 17 17 17 17 17 17 17
27 26 27 26 27 27 26 27 27 28 29 29 29 28 28 27 26 26 26 27 27 26 25 24 22 21 20 20 19 19 19 19 18 18 18 18 17 17 17 17 17 17 17 17
27 25 25 26 26 26 25 27 28 28 29 29 28 27 27 26 25 25 25 26 25 24 24 23 22 21 20 20 19 19 19 18 18 18 18 17 17 17 17 17 17 17 17 17
25 25 25 25 25 24 27 28 28 28 28 28 28 27 27 26 24 23 23 24 23 23 23 22 22 21 20 20 19 19 18 18 18 18 17 17 17 17 17 17 17 17 17 16
25 24 24 24 24 25 26 26 26 26 26 26 26 26 25 25 24 22 21 21 21 21 21 21 21 21 20 20 19 19 18 18 18 17 17 17 17 17 17 17 16 16 16 16
25 24 23 23 23 23 24 25 26 26 24 24 25 24 24 24 23 21 19 19 19 20 20 20 20 20 20 19 19 18 18 18 17 17 17 17 17 16 16 16 16 16 16 16
23 22 22 23 23 23 23 24 25 23 22 23 23 22 22 21 20 19 18 18 18 18 18 19 19 19 19 19 18 18 18 17 17 17 17 16 16 16 16 16 16 16 16 16
22 22 22 22 22 21 22 23 22 21 21 21 21 21 20 19 18 17 17 17 17 17 17 17 17 17 18 18 18 17 17 17 16 16 16 16 16 16 16 15 15 15 15 15
21 21 21 21 20 20 21 20 20 20 20 20 20 19 19 18 17 16 16 16 16 16 16 16 16 16 16 16 16 16 16 16 16 16 16 15 15 15 15 15 15 15 14 14
21 22 21 20 20 20 19 19 18 18 18 18 18 18 17 17 16 15 15 15 14 14 15 15 15 15 15 15 15 15 15 15 15 15 15 15 15 14 14 14 14 14 14 14
20 20 20 19 19 18 18 17 17 16 16 16 16 16 16 15 14 14 14 13 13 13 13 13 13 13 13 13 14 14 14 14 14 14 14 14 14 14 14 14 14 13 13 13
19 19 19 18 17 17 16 15 15 15 15 15 15 14 14 14 13 13 12 12 12 12 12 12 12 12 12 13 13 13 13 13 14 13 13 14 14 13 13 13 13 13 13 13

GEFSCGP_850_meantemp_138.txt.gz
Temperature
25 22 21 22 22 23 24 24 24 26 28 27 26 25 25 25 25 24 23 23 22 22 23 22 22 21 21 21 20 20 20 20 19 19 19 19 18 18 18 18 18 18 18 18
23 22 23 24 25 25 25 24 25 26 27 27 25 25 24 24 24 24 23 22 22 22 21 22 21 21 21 21 20 20 20 19 19 19 19 19 18 18 18 18 18 18 18 18
22 23 25 26 25 25 25 25 25 26 27 26 26 24 23 23 24 24 23 23 22 22 21 21 21 21 21 20 20 20 20 19 19 18 18 18 18 18 18 18 18 18 18 18
23 25 26 26 25 26 24 26 27 27 25 23 25 22 22 22 22 22 22 22 22 22 22 21 21 21 20 20 20 20 19 19 19 18 18 18 18 18 18 18 18 18 18 18
23 25 25 25 26 27 25 27 27 27 25 23 23 22 21 21 22 22 21 22 22 22 22 22 21 21 20 20 20 19 19 19 19 18 18 18 18 18 18 18 18 18 18 18
24 26 26 26 27 27 27 27 25 22 21 22 22 22 21 20 21 21 21 22 21 22 22 22 21 21 20 20 19 19 19 19 18 18 18 18 18 18 18 17 17 17 17 17
24 25 26 27 26 27 26 23 21 22 20 20 21 21 20 21 21 21 21 21 21 21 21 21 21 21 20 19 19 19 18 18 18 18 18 18 17 18 18 17 17 17 17 17
22 23 25 26 26 25 25 22 21 21 21 20 21 21 20 21 21 22 22 22 21 21 21 21 21 21 20 19 19 19 18 18 18 18 17 17 17 17 17 17 17 17 18 18
22 23 26 27 28 26 25 23 21 20 21 20 20 20 21 21 21 21 21 21 21 20 21 21 21 21 20 20 19 19 19 18 18 17 17 17 17 17 17 17 17 17 17 17
22 23 25 27 27 26 25 24 20 20 21 21 21 21 20 20 20 20 20 20 21 20 20 21 21 21 20 20 19 19 19 18 18 18 17 17 17 17 17 17 17 17 17 17
23 22 23 25 25 24 24 24 21 19 19 20 20 20 21 20 20 20 20 21 21 20 21 21 21 21 20 20 19 19 18 18 18 17 17 17 17 17 17 17 17 17 17 17
22 20 21 23 24 25 24 23 21 21 20 19 19 20 22 20 20 20 20 21 21 21 21 21 21 21 20 20 19 19 18 18 18 18 18 17 17 17 17 17 17 17 17 17
22 20 20 21 22 23 24 23 22 19 19 19 19 20 21 20 20 20 21 21 21 21 21 21 20 20 20 20 19 19 18 18 18 18 17 17 17 17 17 17 17 17 17 17
22 19 20 21 21 22 23 24 23 20 19 20 20 20 20 20 20 20 21 21 21 21 21 21 20 20 20 20 19 19 18 18 18 18 17 17 17 17 17 17 17 17 17 17
20 20 21 21 23 23 24 24 24 22 21 20 21 20 20 20 20 20 20 20 20 21 21 20 20 20 20 19 19 19 18 18 18 18 17 17 17 17 17 17 17 17 17 17
18 20 20 21 23 23 23 23 23 23 22 21 21 20 19 19 19 19 20 19 19 20 20 20 20 20 20 19 19 19 18 18 18 18 17 17 17 17 17 17 17 17 17 17
17 18 19 19 21 22 21 21 22 21 21 21 20 19 19 18 18 18 18 19 19 19 20 20 20 20 20 20 19 19 19 18 18 18 17 17 17 17 17 17 17 17 17 16
17 17 16 18 20 20 20 21 21 21 20 20 19 19 18 18 18 18 18 18 19 19 19 19 19 19 19 19 19 19 18 18 18 18 17 17 17 17 17 17 17 16 16 16
16 17 16 16 18 19 20 20 20 19 18 18 18 18 18 17 17 17 18 18 18 18 19 19 19 19 19 19 18 18 18 18 18 17 17 17 17 17 17 16 16 16 16 16
16 15 16 16 18 18 18 19 20 19 17 17 17 17 17 17 16 16 17 17 18 18 18 19 19 19 19 18 18 18 18 17 17 17 17 17 17 17 16 16 16 16 16 16
16 15 16 16 17 17 18 19 19 18 17 17 17 17 17 16 16 16 16 17 17 17 17 18 18 18 18 18 18 17 17 17 17 17 16 16 16 16 16 16 16 15 15 15
15 15 15 15 16 16 16 17 16 15 16 16 16 16 16 16 15 15 16 16 16 16 16 17 17 17 17 17 17 17 17 17 17 16 16 16 16 15 15 15 15 15 15 15
14 14 13 14 14 15 15 15 16 16 16 16 16 16 15 15 14 15 15 15 15 15 15 15 16 16 16 16 16 16 16 16 16 16 16 15 15 15 15 15 15 14 14 14
14 14 13 13 14 14 14 15 15 16 15 16 15 15 15 14 14 14 14 14 14 14 14 14 15 15 15 15 15 15 15 15 15 15 15 15 15 14 14 14 14 14 14 14
14 13 13 13 13 14 14 14 14 15 15 15 15 14 14 14 13 13 13 13 13 13 13 13 14 13 14 14 14 14 14 15 15 14 14 14 14 14 14 13 13 13 13 13
13 13 13 13 13 12 12 13 14 14 14 14 14 13 13 13 13 13 12 12 12 12 12 13 13 13 13 13 13 13 13 14 14 14 14 13 13 13 13 13 12 12 12 12